RADUGA-1 3 (22981 NORAD) Tracking and Keplerian Element Data

This shows tracking and keplerian element data for the satellite.

Feedback or suggestion? Click here.




ElementValue
Catalog22981
NameRADUGA-1 3
Epoch Orbit11665
Epoch Day351.56552233
Epoch Year2025
RAAN349.5775
Inclination14.2433
Eccentricity0.0003134
Argument of Perigee248.8064
Mean Anonmoly103.3653
Mean Motion1.00298304
Decay Rate8.6E-07
L11 22981U 94008A 25351.56552233 .00000086 00000+0 00000+0 0 9992
L22 22981 14.2433 349.5775 0003134 248.8064 103.3653 1.00298304116651



Live tracking and technical data element details for RADUGA-1 3 (NORAD 22981). RADUGA-1 3 can be tracked NOW for your location showing map with azimuth and elevation plus other details from your city location.







IsCatalogInMostPopularTable: catalog: 22981, numindb: 367
Update: records affected: 1



GetName: 22981 RADUGA-1 3

Hit Count: updated at: Mon, 18 May 2026 10:25:56 GMT